Погода в Беловодье

Россия / Ульяновская область     54°15′29″N   46°36′59″E
темп.,
°C
ветер,
м/с
пор.,
м/с
влажн.,
%
обл.,
%
осадки,
мм/ч
давл.,
гПа
погр.,
м
14 апреля, ср
ср1401:00+8ююв22665 0.0 103017
04:00+6юв22724 0.0 103017
07:00+7юв22770 0.0 102929
10:00+14юв47570 0.0 1027367
13:00+18юв57515 0.0 10261063
16:00+19юв58530 0.0 10241350
19:00+16юв37715 0.0 1023164
22:00+12юв34885 0.0 102362
15 апреля, чт
чт1501:00+10юв22901 0.0 102222
04:00+9юв229117 0.0 102212
07:00+9юв229112 0.0 102129
10:00+14юв236698 0.0 1020470
13:00+16юв1249100 0.0 10191208
16:00+17вюв114149 0.0 10181014
19:00+15ссв22530 0.0 101811
22:00+11св22670 0.0 101911
16 апреля, пт
пт1601:00+9св22730 0.0 101812
04:00+8св22820 0.0 101922
07:00+8св24880 0.0 102089
10:00+12всв57713 0.0 1020518
13:00+14св666812 0.0 1021754
16:00+15всв676016 0.0 10211080
19:00+12всв69715 0.0 1022663
22:00+8всв511809 0.0 1024417
17 апреля, сб
сб1701:00+6всв410805 0.0 1024336
04:00+5св4118510 0.0 1025326
07:00+5св41281100 0.0 1026444
10:00+6всв51069100 0.0 1026529
13:00+11всв68455 0.0 1026977
16:00+12всв67330 0.0 10261146
19:00+9всв49454 0.0 1027382
22:00+5всв35605 0.0 102873
18 апреля, вс
вс1801:00+4всв23665 0.0 102856
04:00+3св22771 0.0 102826
07:00+3св25770 0.0 1029116
10:00+9всв46554 0.0 1028747
13:00+11всв5646100 0.0 10281563
16:00+12всв6743100 0.0 10281579
19:00+10всв3754100 0.0 1028249
22:00+6в246899 0.0 103083